Weather in Verhoturie

Russia / Sverdlovsk Oblast     58°51′43″N   60°48′36″E
temp.,
°C
wind,
m/s
gust,
m/s
humid.,
%
clouds,
%
prec.,
mm/h
press.,
hPa
HPBL,
m
16 april, fri
fri1623:00+7nne51193100 5.4 1019513
02:00+5nne41083100 0.9 1022888
05:00+3n4876100 0.9 1025686
08:00+3nne47644 0.0 1027669
11:00+5nne34470 0.0 10281248
14:00+7nne34384 0.0 10281648
17:00+8nne22355 0.0 10281734
20:00+4se11495 0.0 102810
17 april, sat
sat1723:00+2w11607 0.0 102814
02:000nw22704 0.0 102729
05:00−1wnw22745 0.0 102716
08:00+3w38595 0.0 1026446
11:00+8wnw57475 0.0 10241447
14:00+9wnw684373 0.0 10221970
17:00+8wnw57488 0.0 10211500
20:00+5wnw5116026 0.0 1020789
18 april, sun
sun1823:00+4w5136869 0.0 1019828
02:00+4wnw613758 0.0 1017968
05:00−1n61459100 1.3 10201165
08:00−2n6117197 0.0 10251079
11:000nne6846100 0.1 10281815
14:00+1nne673368 0.0 10302141
17:00+1nne57271 0.0 10321981
20:00−2nne37380 0.0 1035292
19 april, mon
mon1923:00−5ne26500 0.0 1037164
02:00−5ene11490 0.0 103831
05:00−6nw00505 0.0 103910
08:00−3w11364 0.0 1040468
11:00+1wsw12292 0.0 10391459
14:00+3w22280 0.0 10381733
17:00+4wsw23280 0.0 10371733
20:00+1ssw22450 0.0 103721
20 april, tue
tue2023:00−2sw38536 0.0 1037162
02:00−3w23655 0.0 103666
05:00−3wsw286321 0.0 1036201
08:00+2w364645 0.0 1036405
11:00+7wnw353285 0.0 10341014
14:00+9wnw453092 0.0 10331334
17:00+10wnw45305 0.0 10321434
20:00+5wnw25530 0.0 103290